Location: Newark
(41.6500°N, 71.4833°W)
Time: 23:09:50
(UTC+00:00)

Vanguard 2 Rocket - Visible Passes

Search period start: 20 January 2020 00:00
Search period end: 30 January 2020 00:00
Orbit: 554 x 3326 km, 32.9° (Epoch: 20 January)

Date Brightness Start Highest point End Pass type
(mag) Time Alt. Az. Time Alt. Az. Time Alt. Az.
20 Jan 8.9 10:05:27 10° SSW 10:09:07 19° SE 10:14:01 10° ESE visible
21 Jan 9.1 09:10:07 10° SE 09:10:14 10° SE 09:10:21 10° SE visible
21 Jan 8.6 11:16:51 10° SW 11:21:53 36° SSE 11:29:57 10° E visible
22 Jan 8.6 10:18:39 10° SSW 10:22:44 26° SSE 10:28:32 10° ESE visible
23 Jan 8.6 09:22:44 15° SSE 09:23:46 16° SSE 09:27:09 10° ESE visible
23 Jan 8.3 11:30:44 10° WSW 11:35:46 40° S 11:43:55 10° ESE visible
24 Jan 8.2 10:32:36 12° SW 10:36:31 31° SSE 10:42:43 10° ESE visible
25 Jan 8.1 09:36:36 21° S 09:37:28 22° SSE 09:41:48 10° ESE visible
26 Jan 9.1 08:40:35 11° SE 08:40:35 11° SE 08:40:51 10° ESE visible
26 Jan 7.9 10:46:24 11° SW 10:50:26 34° S 10:56:43 10° ESE visible
27 Jan 7.7 09:50:21 25° S 09:51:19 27° SSE 09:56:03 10° ESE visible
28 Jan 8.7 08:54:17 15° SE 08:54:17 15° SE 08:55:39 10° ESE visible
28 Jan 7.9 11:00:17 10° WSW 11:04:27 33° S 11:10:34 10° ESE visible
29 Jan 7.5 10:04:01 25° SSW 10:05:17 29° S 10:10:06 10° ESE visible
